Wind_Speed
29 29 32 34 34 34 35 36 36 34 33 32 32 31 32 33 33 32 33 33 33 33 33 34 34 34 34 34 33 34 34 34 34 34 34 34 34 34 35 35 35 35 36
29 28 30 33 33 33 33 34 34 34 33 33 31 33 33 33 33 33 33 33 33 34 33 35 35 35 35 35 35 36 36 35 35 35 35 35 36 36 37 37 38 38 38
26 28 29 31 32 32 32 32 33 34 33 34 34 34 34 34 34 34 34 35 34 34 34 35 35 36 35 36 36 36 36 36 36 36 36 36 37 38 38 39 39 39 40
25 26 28 30 30 30 31 32 32 32 33 33 34 34 34 34 33 33 34 35 35 36 36 36 37 37 37 37 37 37 37 37 37 37 37 38 39 40 40 41 41 41 42
23 24 25 26 28 29 30 31 32 33 34 34 34 35 35 35 34 35 36 37 37 38 38 38 38 38 38 39 39 39 38 39 39 39 39 40 40 41 42 41 42 43 43
21 22 24 25 26 27 28 29 31 33 34 35 35 34 34 35 36 36 36 37 38 38 39 40 40 39 40 40 40 40 40 40 41 41 41 42 42 43 43 43 44 44 44
21 23 24 25 26 26 27 28 30 32 34 35 35 34 34 36 36 37 38 39 39 39 40 40 41 41 41 42 41 40 40 41 42 42 43 44 44 45 45 45 45 45 45
19 20 22 24 26 26 27 28 30 32 33 34 35 36 36 37 38 39 39 40 40 40 41 42 42 42 42 42 41 41 42 43 43 44 45 45 45 46 46 47 47 47 47
19 20 20 22 24 25 27 29 30 31 33 34 35 37 38 38 39 40 41 41 42 43 43 43 42 42 42 42 43 43 44 45 45 45 45 46 47 48 49 49 50 50 50
20 22 22 22 23 25 27 28 29 31 32 34 36 37 39 40 41 41 42 42 43 44 44 43 43 43 43 44 43 44 45 46 46 46 47 47 48 49 50 51 52 52 53
20 22 23 24 24 25 26 28 30 31 33 35 37 39 40 41 42 43 44 44 44 45 44 44 44 44 44 44 45 45 46 47 48 48 49 49 49 50 51 52 54 55 56
21 22 24 25 26 27 28 29 31 32 34 35 36 38 39 40 42 43 44 44 45 46 46 46 45 46 46 46 47 47 48 49 50 50 51 51 52 53 54 55 56 58 59
22 23 24 26 27 28 30 31 33 34 36 37 37 38 39 40 41 42 43 44 45 45 46 47 47 47 48 49 49 49 50 51 51 52 53 54 55 56 57 58 59 60 61
24 25 27 28 29 30 31 33 34 35 36 37 38 39 40 41 41 42 43 44 45 45 47 48 48 49 50 50 51 51 52 53 53 54 55 55 56 57 58 60 61 62 62
27 28 29 30 31 32 33 34 35 36 37 38 39 40 41 41 42 43 44 44 45 46 47 48 49 50 51 51 52 52 53 54 54 55 55 56 57 59 60 61 62 62 63
29 30 31 32 33 34 35 35 36 36 38 39 40 41 41 42 43 44 44 45 46 47 48 49 50 50 51 52 53 53 54 54 55 56 56 57 59 60 61 62 63 64 65
31 32 33 33 34 35 36 36 37 38 39 40 41 42 43 43 44 45 45 46 47 47 48 49 50 51 51 52 53 53 54 55 55 56 57 59 60 61 62 63 64 65 66
33 34 34 35 36 37 37 38 39 40 41 41 42 43 44 44 45 45 46 47 47 47 48 49 50 51 51 52 53 54 54 55 56 57 58 60 61 62 63 64 65 66 66
35 35 36 36 37 39 40 40 40 41 42 42 43 44 44 45 46 46 46 47 47 48 49 49 50 51 52 53 54 55 56 56 57 58 59 61 62 63 64 65 66 66 66
35 36 37 37 38 39 40 41 41 42 42 43 44 44 45 45 46 46 47 47 47 48 48 49 50 51 53 54 55 56 57 57 57 58 59 60 62 62 63 64 64 64 63
36 37 38 38 39 40 41 41 42 43 44 44 44 45 45 46 46 46 47 47 47 48 49 50 50 51 52 53 54 55 56 56 57 58 58 59 61 61 62 62 62 62 61
38 39 39 40 40 41 42 42 43 44 45 45 45 45 46 46 46 47 47 47 48 49 49 50 50 51 52 53 54 55 56 56 57 57 58 59 60 60 60 60 59 59 59
41 41 42 42 42 43 43 44 44 44 45 45 45 46 46 46 46 47 47 48 48 49 50 50 51 52 53 54 54 55 55 56 57 58 58 58 58 58 57 56 56 56 55
43 43 43 43 43 43 44 44 44 45 45 45 45 45 45 46 46 46 47 48 48 49 50 51 52 53 53 53 53 53 54 56 56 57 57 56 56 55 54 53 53 52 52
44 44 44 44 44 44 44 44 44 44 45 45 44 44 45 45 46 47 47 48 49 50 51 52 52 53 52 52 53 53 54 54 55 55 54 53 52 51 51 50 49 49 49
45 45 45 45 45 45 45 45 45 45 45 45 45 45 45 46 47 48 48 49 49 50 51 52 52 52 52 52 52 52 52 53 53 52 51 50 49 48 47 46 46 46 46
Wind_Direction
234 236 233 233 232 231 232 233 233 235 237 238 240 242 246 249 251 254 257 260 262 263 266 268 271 273 275 276 277 278 280 280 280 280 280 279 279 280 282 282 283 283 284
234 236 235 234 233 234 235 235 234 236 238 240 245 248 249 251 253 256 260 261 263 264 265 269 270 273 275 276 277 278 279 279 279 279 280 279 279 280 282 282 283 283 283
235 236 236 234 234 235 237 237 236 238 241 244 248 251 251 254 256 259 262 264 264 265 266 268 270 274 276 277 278 279 279 280 279 279 279 279 279 281 282 283 283 282 283
238 239 237 234 234 236 238 240 240 241 244 246 249 251 254 257 259 261 264 265 266 266 268 271 274 276 278 279 278 279 280 280 280 281 281 281 281 280 281 282 283 283 283
242 242 240 236 236 238 239 241 242 243 244 248 251 254 256 259 261 263 265 266 266 268 271 273 276 278 278 279 279 279 279 279 279 280 281 282 282 282 282 283 283 283 283
241 238 238 239 239 240 242 244 245 245 246 250 253 256 259 261 264 265 267 268 269 270 272 273 276 277 279 280 280 279 279 279 279 280 281 282 283 283 283 283 282 282 283
242 240 241 242 243 244 245 246 247 248 249 251 254 256 260 262 264 267 269 270 271 272 273 274 275 277 279 279 279 279 278 279 280 281 282 282 282 283 283 282 281 281 282
247 246 246 247 248 247 247 247 249 250 252 253 254 257 260 264 265 267 269 270 271 272 273 274 276 277 278 277 278 279 279 279 280 281 282 282 282 282 282 282 282 281 281
249 247 248 248 249 250 250 251 253 254 254 255 257 260 262 264 267 269 271 271 272 273 274 275 276 276 277 278 278 278 279 280 281 281 281 281 281 282 282 281 282 282 282
252 252 253 252 252 253 253 252 253 255 257 258 260 263 265 267 268 270 272 272 273 274 275 275 276 277 278 279 279 280 280 281 282 281 281 281 281 281 282 283 283 284 284
258 257 256 257 258 257 257 257 257 259 260 262 264 266 268 269 271 272 273 273 274 274 275 276 277 278 278 278 279 280 281 282 282 282 282 282 282 282 283 284 284 285 285
262 260 259 260 261 260 260 259 260 261 263 265 266 269 270 272 273 274 274 275 275 275 276 277 277 277 278 278 280 280 281 282 283 283 283 283 283 284 284 285 285 286 287
265 263 263 263 263 262 261 262 263 264 265 267 269 271 273 274 275 276 276 276 276 276 276 277 277 277 278 279 281 281 281 282 283 283 283 283 284 284 285 285 286 287 287
266 264 263 264 264 264 265 265 265 266 268 270 272 273 274 275 277 278 278 278 278 278 278 278 278 278 279 280 280 281 281 282 282 283 284 284 284 284 285 286 286 287 287
269 268 267 267 267 268 268 268 268 269 271 272 273 274 275 276 277 278 279 279 279 279 280 280 279 279 279 280 280 281 282 282 283 284 284 285 285 285 286 286 287 287 288
269 269 269 270 270 270 270 270 270 271 273 274 274 275 276 277 278 278 279 279 280 280 281 281 281 281 281 281 282 282 282 283 283 284 284 285 286 286 287 288 288 288 288
270 270 269 269 270 270 271 271 271 273 274 275 275 275 276 277 278 279 280 280 281 281 281 282 282 283 283 282 283 283 283 284 284 285 285 286 286 287 288 288 288 289 289
272 271 271 271 271 271 271 271 272 273 274 274 275 276 277 278 279 280 281 282 282 282 283 283 283 283 283 283 284 284 285 285 286 286 286 287 287 288 288 288 289 289 289
273 272 273 273 273 272 272 272 273 274 275 276 276 277 278 279 280 281 282 282 283 283 284 284 284 284 284 284 284 285 285 286 286 287 288 288 289 289 289 289 290 290 290
275 274 274 274 275 275 275 275 276 277 277 277 278 278 279 280 281 282 282 283 284 284 285 285 285 285 285 285 285 286 286 287 287 288 289 289 290 290 290 291 291 291 291
275 275 276 276 276 276 276 277 277 278 278 278 279 279 280 281 281 282 283 284 284 285 285 286 286 286 287 287 287 287 288 288 289 289 290 290 291 291 292 292 292 292 292
276 276 277 278 278 278 278 279 279 279 279 280 280 280 280 280 281 282 283 284 285 286 287 287 287 288 289 289 289 289 290 290 291 291 292 292 292 292 292 292 292 292 293
277 278 278 279 279 279 280 279 280 280 280 280 280 280 281 281 282 282 284 285 286 287 288 288 289 289 290 290 291 291 291 292 293 293 294 294 294 293 293 293 293 293 293
278 278 278 278 279 280 280 280 280 280 280 280 281 281 281 281 282 283 284 286 287 288 289 290 290 291 291 290 291 291 292 293 293 294 294 294 294 294 294 294 294 293 293
278 278 278 278 279 279 280 280 280 280 281 281 281 282 282 282 282 283 285 287 288 289 290 291 292 292 291 291 291 292 293 294 295 295 295 294 294 294 294 294 294 294 294
278 278 278 278 279 279 279 279 280 280 281 281 281 282 282 282 283 284 285 287 289 290 291 292 292 292 292 292 293 294 294 295 296 296 296 295 295 295 295 295 294 294 295
Height
5738 5741 5744 5747 5752 5756 5760 5763 5766 5769 5772 5775 5776 5779 5781 5783 5784 5786 5787 5788 5788 5788 5788 5789 5788 5788 5787 5787 5786 5785 5784 5783 5782 5781 5780 5779 5778 5776 5775 5773 5771 5770 5768
5733 5736 5739 5743 5747 5750 5754 5757 5760 5763 5766 5769 5771 5773 5775 5776 5777 5778 5779 5780 5780 5780 5781 5781 5780 5780 5779 5779 5778 5777 5776 5775 5774 5773 5772 5771 5770 5768 5766 5765 5763 5761 5759
5729 5731 5734 5738 5741 5745 5748 5751 5754 5757 5760 5763 5766 5767 5768 5769 5771 5771 5772 5772 5772 5772 5773 5772 5772 5772 5771 5771 5770 5769 5768 5767 5766 5765 5764 5762 5761 5760 5758 5756 5754 5752 5750
5725 5727 5729 5732 5735 5738 5742 5745 5748 5751 5754 5756 5759 5760 5761 5762 5763 5764 5764 5764 5764 5764 5764 5764 5764 5764 5763 5762 5761 5760 5759 5758 5757 5756 5754 5753 5752 5751 5749 5747 5745 5742 5740
5721 5723 5725 5728 5730 5732 5736 5739 5742 5745 5747 5750 5752 5753 5755 5755 5756 5756 5756 5756 5756 5756 5756 5756 5755 5755 5754 5753 5752 5751 5750 5749 5747 5746 5745 5743 5742 5740 5739 5738 5735 5732 5730
5717 5719 5721 5723 5725 5728 5730 5733 5736 5738 5741 5743 5745 5746 5747 5748 5748 5748 5748 5748 5748 5747 5747 5747 5746 5745 5744 5744 5743 5741 5740 5739 5738 5736 5735 5733 5731 5730 5728 5727 5724 5722 5719
5714 5715 5717 5719 5721 5723 5725 5727 5730 5732 5734 5736 5737 5738 5739 5740 5740 5739 5739 5739 5739 5738 5738 5737 5736 5735 5734 5733 5732 5731 5730 5729 5727 5726 5724 5722 5720 5718 5716 5714 5712 5711 5708
5710 5711 5712 5714 5716 5717 5719 5721 5723 5725 5727 5728 5730 5730 5731 5731 5731 5731 5730 5730 5729 5729 5728 5727 5726 5725 5724 5723 5722 5721 5719 5718 5716 5715 5713 5710 5708 5706 5703 5702 5700 5699 5697
5705 5706 5707 5708 5709 5711 5713 5715 5717 5718 5719 5721 5721 5722 5722 5722 5722 5721 5721 5720 5720 5719 5718 5717 5716 5715 5714 5713 5711 5710 5708 5707 5705 5703 5701 5698 5696 5693 5691 5688 5686 5685 5683
5700 5701 5702 5703 5703 5705 5706 5708 5709 5710 5711 5712 5712 5713 5713 5713 5712 5711 5711 5710 5709 5708 5707 5706 5705 5704 5703 5701 5700 5698 5697 5695 5693 5691 5689 5686 5683 5681 5678 5675 5672 5669 5667
5695 5696 5696 5697 5698 5699 5700 5701 5701 5702 5703 5703 5703 5703 5703 5702 5702 5701 5700 5699 5698 5697 5696 5695 5694 5692 5691 5690 5688 5686 5685 5683 5680 5678 5676 5673 5670 5667 5664 5661 5658 5655 5652
5691 5691 5691 5691 5692 5692 5692 5693 5693 5694 5694 5694 5694 5693 5693 5692 5691 5690 5689 5688 5687 5685 5684 5683 5682 5681 5679 5677 5676 5674 5672 5670 5667 5664 5662 5659 5656 5653 5650 5647 5643 5640 5636
5685 5685 5685 5685 5685 5685 5685 5685 5685 5685 5684 5684 5684 5683 5682 5681 5680 5679 5678 5676 5675 5674 5672 5671 5670 5668 5666 5665 5663 5661 5658 5656 5653 5650 5648 5645 5642 5639 5635 5631 5628 5624 5619
5679 5679 5678 5678 5678 5678 5677 5677 5676 5676 5675 5674 5674 5673 5672 5670 5669 5668 5666 5665 5663 5661 5659 5658 5656 5655 5653 5651 5649 5646 5644 5641 5639 5636 5633 5630 5626 5623 5619 5615 5611 5607 5602
5672 5671 5671 5670 5670 5669 5669 5668 5667 5667 5666 5665 5664 5662 5661 5659 5658 5656 5654 5652 5650 5648 5646 5645 5643 5641 5639 5637 5634 5632 5629 5627 5624 5621 5617 5614 5610 5606 5602 5598 5594 5589 5584
5663 5663 5662 5662 5661 5660 5659 5659 5658 5657 5656 5655 5653 5651 5649 5648 5646 5644 5642 5640 5637 5635 5633 5631 5629 5627 5624 5622 5619 5617 5614 5611 5609 5606 5602 5598 5594 5590 5585 5581 5576 5571 5566
5654 5654 5653 5652 5651 5650 5649 5649 5647 5646 5645 5643 5642 5640 5638 5636 5634 5631 5629 5627 5624 5622 5620 5617 5615 5612 5610 5607 5604 5601 5599 5596 5593 5589 5586 5582 5577 5573 5568 5563 5558 5553 5547
5645 5644 5643 5642 5641 5640 5639 5638 5636 5635 5634 5632 5630 5628 5626 5623 5621 5618 5616 5613 5611 5608 5606 5603 5601 5598 5595 5592 5589 5586 5583 5580 5577 5573 5569 5565 5561 5555 5550 5546 5541 5536 5530
5635 5634 5632 5631 5630 5629 5628 5626 5625 5623 5621 5619 5617 5615 5613 5611 5608 5606 5603 5600 5597 5595 5592 5589 5587 5584 5581 5577 5574 5570 5568 5564 5561 5557 5552 5547 5542 5537 5531 5527 5522 5518 5512
5624 5623 5621 5620 5619 5617 5616 5614 5613 5611 5609 5607 5605 5602 5600 5598 5595 5592 5590 5587 5584 5581 5578 5575 5572 5569 5566 5562 5558 5555 5552 5549 5545 5541 5535 5530 5524 5519 5513 5507 5502 5498 5493
5613 5611 5610 5608 5607 5605 5604 5602 5600 5598 5596 5594 5592 5589 5587 5584 5582 5579 5576 5574 5571 5568 5565 5562 5558 5554 5550 5547 5543 5539 5535 5532 5528 5524 5519 5513 5507 5501 5495 5489 5484 5478 5474
5601 5599 5598 5596 5595 5593 5591 5590 5588 5586 5583 5581 5579 5576 5574 5571 5568 5566 5563 5560 5557 5554 5551 5547 5544 5540 5535 5531 5527 5523 5519 5514 5511 5507 5501 5496 5490 5484 5478 5472 5466 5461 5455
5589 5587 5586 5584 5582 5580 5578 5576 5574 5572 5570 5568 5565 5563 5560 5557 5555 5552 5549 5546 5543 5540 5536 5533 5530 5526 5521 5516 5512 5507 5503 5498 5494 5489 5484 5478 5472 5466 5461 5455 5449 5444 5439
5576 5574 5573 5571 5569 5567 5565 5563 5561 5558 5556 5554 5552 5549 5547 5544 5541 5538 5535 5532 5529 5525 5522 5518 5515 5511 5507 5501 5497 5493 5488 5483 5478 5473 5468 5462 5456 5450 5445 5440 5434 5428 5423
5563 5561 5559 5557 5556 5553 5551 5549 5547 5545 5543 5541 5538 5536 5533 5531 5528 5525 5522 5519 5515 5511 5507 5503 5499 5495 5492 5487 5482 5477 5473 5468 5463 5457 5453 5447 5442 5436 5431 5425 5420 5415 5410
5549 5547 5545 5543 5542 5539 5538 5535 5533 5531 5529 5527 5525 5522 5520 5517 5514 5512 5509 5505 5501 5497 5492 5488 5484 5480 5476 5472 5467 5462 5458 5452 5447 5442 5438 5433 5427 5422 5417 5412 5408 5403 5397